Terug naar catalogus

HULIANWANG DIGUI-34

ActiefCommunicatiePO
NORAD 64287·PAYLOAD·🇨🇳 China

Gelanceerd Jun 5, 2025 vanaf Taiyuan Satellite Launch Center

Loading…

Volgende Passages (komende 24 uur)

TLE

VersSource: Space-Track

Epoch: Sep 14, 2026, 21:20 UTC

1 64287U 25121E   26257.88922333  .00000074  00000-0  13723-3 0  9998
2 64287  86.5045 343.2711 0001468 118.1350 241.9933 13.24412579 62036

Volg HULIANWANG DIGUI-34 in realtime met AllMySat

Download on the App Store